CZ-6A DEB

Satellite information

Favourite Embed

Satellite Type and Status

DEBRISIN ORBIT

Key statistics

Satellite CZ-6A DEB at a glance.

Uptime

1129

Days in orbit

Revolutions

≈ 14.6

Per day

Orbit

SSO

Sun Synchronous Orbit

Inclination

98.7

Latest

Satellite identification and parameters

Extended collection of information and parameters for CZ-6A DEB.

Object identification

Identified? True

Debris? True

Object name: CZ-6A DEB

International designator: 2022-151GK

Object number (NORAD): 54459

Object ID (CCSDS): 54459

Country: PEOPLES REPUBLIC OF CHINA (PRC)

Current information (Y/N): Y

RCS size: SMALL

Orbital parameters

Period: 98.893 minutes

Inclination: 98.7081 deg

SMA: 7083.877 km

Apoapsis: 817.747 km

Periapsis: 593.736 km

RAAN: 60.5108 deg

Eccentricy: 0.01581134

Argument of periapsis: 100.3331 deg

Mean anomaly: 261.5733 deg

Mean motion: 14.56117015 rev/day

Mean motion (dot): 0.00002151 rev/day2

B* drag term: 0.00042253144 1/REarth

Two-line elements (TLE)

Creation date: Dec. 12, 2025, 10:14 a.m.

Reference frame: TEME

Reference center: EARTH

Epoch: Dec. 12, 2025, 3:16 a.m. UTC

TLE line 0: 0 CZ-6A DEB

TLE line 1: 1 54459U 22151GK 25346.13614063 .00002151 00000-0 42253-3 0 9990

TLE line 2: 2 54459 98.7081 60.5108 0158113 100.3331 261.5733 14.56117015163325

Live tracking on map

Real-time ground track for satellite CZ-6A DEB.

In-orbit conjunctions

A list of the most updated potential collisions computed for object CZ-6A DEB.

Target Orbit TCA Probability of collision Miss distance Type
COSMOS 2251 DEB LEO 2025-05-03 22:49:49 0.0001985465 151.0 (m) DEBRIS
METEOR 2-6 DEB LEO 2024-12-18 14:15:07 0.0001639959 100.0 (m) DEBRIS
CZ-6A DEB SSO 2024-07-06 12:46:49 0.0001612368 531.0 (m) DEBRIS

Associated space launch

Chinese satellite reported for atmospheric/ocean/environmental/spatial parameter research purposes, details TBD.

CZ-6A DEB was lifted into orbit during the mission ‘Long March 6A | Yunhai 3’, on board a Long March 6A space rocket.

The launch took place on Nov. 11, 2022, 10:52 p.m. from Launch Complex 9A.

For more information about the launch, click the button.

Launch to space Long March 6A | Yunhai 3
Long March 6A | Yunhai 3

Agency: N/A

Status: Launch Successful

Launch date: Nov. 11, 2022, 10:52 p.m. UTC

Rocket: Long March 6A

Launch pad: Launch Complex 9A

Location: Taiyuan Satellite Launch Center, People's Republic of China

...

Latest news about this satellite

There are no fresh news available about this satellite. Check back as we update our databases every day.


Newsletter sign-up

Weekly statistics, charts and insights to help you stay on top of the space industry.